カタログに戻る

COSMOS 1579 COOLANT

運用中LEO
NORAD 26520·DEBRIS·🇷🇺 Russia

打ち上げ Jun 29, 1984 から Baikonur Cosmodrome

Loading…

次のパス (今後24時間)

TLE

経年Source: Space-Track

元期: Sep 12, 2026, 00:59 UTC

1 26520U 84069M   26255.04118368  .00000018  00000-0  84772-4 0  9994
2 26520  65.0481  44.7378 0049991 329.2424 143.6847 13.91070134672469

AllMySatでCOSMOS 1579 COOLANTをリアルタイム追跡

Download on the App Store